| time (UTC) | temp F | wind direction | speed MPH | gust MPH | rain 1hr in | rain 24hr in | rain mn in | humidity % | barometer mb |
| 20260902203259 | 81 | 220 | 5.0 | 9.0 | 0.00 | 0.03 | 0.02 | 79 | 1017.2 |
| 20260902203041 | 81 | 231 | 4.0 | 9.0 | 0.00 | 0.03 | 0.02 | 80 | 1017.3 |
| 20260902202259 | 81 | 258 | 3.0 | 9.0 | 0.00 | 0.03 | 0.02 | 79 | 1017.4 |
| 20260902201758 | 80 | 220 | 3.0 | 11.0 | 0.00 | 0.03 | 0.02 | 80 | 1017.5 |
| 20260902201259 | 80 | 207 | 5.0 | 12.0 | 0.00 | 0.03 | 0.02 | 80 | 1017.4 |
| 20260902200759 | 80 | 309 | 8.0 | 12.0 | 0.00 | 0.03 | 0.02 | 82 | 1017.4 |
| 20260902200259 | 79 | 176 | 2.0 | 9.0 | 0.00 | 0.03 | 0.02 | 84 | 1017.2 |
| 20260902200040 | 79 | 213 | 4.0 | 9.0 | 0.00 | 0.03 | 0.02 | 83 | 1017.3 |
| 20260902195259 | 79 | 216 | 5.0 | 10.0 | 0.00 | 0.03 | 0.02 | 84 | 1017.3 |
| 20260902194759 | 78 | 327 | 5.0 | 10.0 | 0.00 | 0.03 | 0.02 | 86 | 1017.3 |
| 20260902194300 | 78 | 165 | 6.0 | 10.0 | 0.00 | 0.03 | 0.02 | 86 | 1017.5 |
| 20260902193759 | 78 | 155 | 5.0 | 9.0 | 0.00 | 0.03 | 0.02 | 84 | 1017.4 |
| 20260902193259 | 77 | 203 | 5.0 | 10.0 | 0.00 | 0.03 | 0.02 | 85 | 1017.5 |
| 20260902193254 | 77 | 176 | 6.0 | 12.0 | 0.00 | 0.03 | 0.02 | 86 | 1017.6 |
| 20260902192259 | 77 | 199 | 5.0 | 12.0 | 0.00 | 0.03 | 0.02 | 88 | 1017.7 |
| 20260902191800 | 76 | 152 | 6.0 | 12.0 | 0.00 | 0.03 | 0.02 | 87 | 1017.7 |
| 20260902191300 | 76 | 158 | 6.0 | 13.0 | 0.00 | 0.03 | 0.02 | 89 | 1017.8 |
| 20260902190800 | 75 | 183 | 8.0 | 13.0 | 0.00 | 0.03 | 0.02 | 89 | 1017.8 |
| 20260902190259 | 75 | 230 | 7.0 | 12.0 | 0.00 | 0.03 | 0.02 | 89 | 1018.0 |
| 20260902185800 | 75 | 161 | 5.0 | 10.0 | 0.00 | 0.03 | 0.02 | 90 | 1018.1 |
| 20260902185300 | 75 | 169 | 6.0 | 10.0 | 0.00 | 0.03 | 0.02 | 88 | 1018.1 |
| 20260902184800 | 75 | 219 | 4.0 | 10.0 | 0.00 | 0.03 | 0.02 | 86 | 1018.1 |
| 20260902184300 | 76 | 176 | 4.0 | 10.0 | 0.00 | 0.03 | 0.02 | 84 | 1018.0 |
| 20260902183759 | 76 | 264 | 6.0 | 11.0 | 0.00 | 0.03 | 0.02 | 84 | 1018.7 |
| 20260902183259 | 77 | 243 | 5.0 | 11.0 | 0.00 | 0.03 | 0.02 | 83 | 1018.8 |
| 20260902182759 | 77 | 257 | 7.0 | 12.0 | 0.00 | 0.03 | 0.02 | 84 | 1018.8 |
| 20260902182259 | 77 | 319 | 7.0 | 12.0 | 0.00 | 0.03 | 0.02 | 85 | 1018.8 |
| 20260902181759 | 77 | 233 | 4.0 | 11.0 | 0.00 | 0.03 | 0.02 | 85 | 1018.8 |
| 20260902181319 | 77 | 224 | 4.0 | 11.0 | 0.00 | 0.03 | 0.02 | 86 | 1018.4 |
| 20260902181311 | 77 | 329 | 5.0 | 11.0 | 0.00 | 0.03 | 0.02 | 84 | 1018.5 |
| 20260902180258 | 77 | 254 | 6.0 | 11.0 | 0.00 | 0.03 | 0.02 | 86 | 1018.4 |
| 20260902175759 | 77 | 235 | 2.0 | 9.0 | 0.00 | 0.03 | 0.02 | 86 | 1018.5 |
| 20260902175536 | 77 | 157 | 4.0 | 9.0 | 0.00 | 0.03 | 0.02 | 86 | 1018.4 |
| 20260902174759 | 77 | 216 | 3.0 | 10.0 | 0.00 | 0.03 | 0.02 | 87 | 1018.5 |
| 20260902174259 | 77 | 237 | 5.0 | 10.0 | 0.00 | 0.03 | 0.02 | 86 | 1018.5 |
| 20260902173759 | 76 | 230 | 4.0 | 7.0 | 0.00 | 0.03 | 0.02 | 86 | 1018.6 |
| 20260902173536 | 76 | 169 | 2.0 | 7.0 | 0.00 | 0.03 | 0.02 | 87 | 1018.4 |
| 20260902172759 | 76 | 172 | 4.0 | 7.0 | 0.00 | 0.03 | 0.02 | 87 | 1018.2 |
| 20260902172259 | 76 | 193 | 6.0 | 9.0 | 0.00 | 0.03 | 0.02 | 87 | 1018.1 |
| 20260902171759 | 77 | 158 | 6.0 | 9.0 | 0.00 | 0.03 | 0.02 | 86 | 1018.1 |
| 20260902171300 | 77 | 179 | 5.0 | 9.0 | 0.00 | 0.03 | 0.02 | 86 | 1018.4 |
| 20260902170758 | 78 | 161 | 6.0 | 9.0 | 0.00 | 0.03 | 0.02 | 87 | 1018.1 |
| 20260902170259 | 78 | 283 | 4.0 | 7.0 | 0.00 | 0.03 | 0.02 | 86 | 1018.0 |
| 20260902170238 | 78 | 180 | 4.0 | 9.0 | 0.00 | 0.03 | 0.02 | 85 | 1018.0 |
| 20260902165538 | 78 | 173 | 6.0 | 9.0 | 0.00 | 0.03 | 0.02 | 86 | 1018.4 |
| 20260902164759 | 77 | 188 | 1.0 | 7.0 | 0.00 | 0.03 | 0.02 | 87 | 1018.4 |
| 20260902164259 | 77 | 189 | 4.0 | 9.0 | 0.00 | 0.03 | 0.02 | 87 | 1018.4 |
| 20260902164038 | 76 | 234 | 4.0 | 9.0 | 0.00 | 0.03 | 0.02 | 89 | 1018.4 |
| 20260902163537 | 76 | 165 | 3.0 | 9.0 | 0.00 | 0.03 | 0.02 | 91 | 1018.5 |
| 20260902162759 | 76 | 220 | 3.0 | 9.0 | 0.00 | 0.03 | 0.02 | 91 | 1018.5 |
| 20260902162538 | 75 | 204 | 2.0 | 10.0 | 0.00 | 0.03 | 0.02 | 92 | 1018.8 |
| 20260902161759 | 75 | 224 | 4.0 | 10.0 | 0.00 | 0.03 | 0.02 | 92 | 1018.7 |
| 20260902161259 | 75 | 195 | 4.0 | 10.0 | 0.00 | 0.03 | 0.02 | 93 | 1018.8 |
| 20260902160759 | 74 | 203 | 2.0 | 10.0 | 0.00 | 0.03 | 0.02 | 93 | 1018.9 |
| 20260902160300 | 74 | 206 | 3.0 | 9.0 | 0.00 | 0.03 | 0.02 | 94 | 1018.8 |
| 20260902155759 | 74 | 203 | 4.0 | 9.0 | 0.00 | 0.03 | 0.02 | 94 | 1018.9 |
| 20260902155315 | 74 | 247 | 2.0 | 12.0 | 0.00 | 0.03 | 0.02 | 96 | 1018.6 |
| 20260902155308 | 74 | 202 | 4.0 | 11.0 | 0.00 | 0.03 | 0.02 | 95 | 1018.7 |
| 20260902154531 | 73 | 235 | 4.0 | 12.0 | 0.01 | 0.03 | 0.02 | 96 | 1018.7 |
| 20260902153759 | 73 | 252 | 2.0 | 6.0 | 0.01 | 0.03 | 0.02 | 96 | 1018.8 |
| 20260902153258 | 73 | 221 | 2.0 | 6.0 | 0.01 | 0.03 | 0.02 | 96 | 1018.7 |
| 20260902153044 | 73 | 158 | 3.0 | 6.0 | 0.01 | 0.03 | 0.02 | 97 | 1018.6 |
| 20260902152800 | 72 | 142 | 2.0 | 5.0 | 0.01 | 0.03 | 0.02 | 97 | 1018.6 |
| 20260902152033 | 72 | 186 | 1.0 | 3.0 | 0.01 | 0.03 | 0.02 | 98 | 1018.6 |
| 20260902151522 | 71 | 206 | 1.0 | 4.0 | 0.01 | 0.03 | 0.02 | 98 | 1018.5 |
| 20260902151019 | 71 | 190 | 1.0 | 5.0 | 0.01 | 0.03 | 0.02 | 98 | 1018.6 |
| 20260902150300 | 71 | 206 | 0.0 | 5.0 | 0.01 | 0.03 | 0.02 | 98 | 1018.7 |
| 20260902150244 | 71 | 196 | 1.0 | 4.0 | 0.01 | 0.02 | 0.02 | 98 | 1019.0 |
| 20260902145259 | 70 | 219 | 1.0 | 3.0 | 0.01 | 0.02 | 0.02 | 98 | 1019.0 |
| 20260902144759 | 70 | 302 | 0.0 | 3.0 | 0.01 | 0.02 | 0.02 | 98 | 1019.0 |
| 20260902144735 | 69 | 347 | 0.0 | 4.0 | 0.00 | 0.02 | 0.01 | 98 | 1019.2 |
| 20260902143801 | 69 | 266 | 1.0 | 4.0 | 0.00 | 0.02 | 0.01 | 98 | 1019.0 |
| 20260902143530 | 69 | 286 | 0.0 | 3.0 | 0.00 | 0.02 | 0.01 | 97 | 1019.1 |
| 20260902143037 | 69 | 289 | 1.0 | 4.0 | 0.00 | 0.02 | 0.01 | 97 | 1019.3 |
| 20260902141759 | 69 | 257 | 1.0 | 6.0 | 0.00 | 0.02 | 0.01 | 97 | 1019.6 |
| 20260902141259 | 68 | 182 | 2.0 | 6.0 | 0.00 | 0.02 | 0.01 | 97 | 1019.7 |
| 20260902141021 | 68 | 219 | 1.0 | 4.0 | 0.00 | 0.02 | 0.01 | 97 | 1019.3 |
| 20260902140540 | 68 | 169 | 0.0 | 4.0 | 0.00 | 0.02 | 0.01 | 97 | 1019.2 |
| 20260902135759 | 68 | 210 | 2.0 | 4.0 | 0.00 | 0.02 | 0.01 | 97 | 1019.2 |
| 20260902135533 | 67 | 147 | 1.0 | 4.0 | 0.00 | 0.02 | 0.01 | 97 | 1018.9 |
| 20260902134758 | 67 | 100 | 0.0 | 6.0 | 0.00 | 0.02 | 0.01 | 97 | 1019.2 |
| 20260902134524 | 67 | 135 | 3.0 | 6.0 | 0.00 | 0.02 | 0.01 | 97 | 1018.8 |
| 20260902133758 | 67 | 144 | 3.0 | 5.0 | 0.00 | 0.02 | 0.01 | 97 | 1018.9 |
| 20260902133300 | 67 | 158 | 2.0 | 4.0 | 0.00 | 0.02 | 0.01 | 97 | 1019.4 |
| 20260902133036 | 67 | 166 | 2.0 | 5.0 | 0.00 | 0.02 | 0.01 | 97 | 1019.6 |
| 20260902132259 | 67 | 171 | 2.0 | 5.0 | 0.00 | 0.02 | 0.01 | 97 | 1019.6 |
| 20260902131759 | 67 | 147 | 2.0 | 4.0 | 0.00 | 0.02 | 0.01 | 97 | 1019.6 |
| 20260902131259 | 67 | 171 | 2.0 | 5.0 | 0.00 | 0.02 | 0.01 | 97 | 1019.5 |
| 20260902130758 | 67 | 200 | 2.0 | 5.0 | 0.00 | 0.02 | 0.01 | 97 | 1019.5 |
| 20260902130259 | 67 | 195 | 1.0 | 3.0 | 0.00 | 0.02 | 0.01 | 97 | 1019.4 |
| 20260902125758 | 67 | 155 | 0.0 | 4.0 | 0.00 | 0.02 | 0.01 | 97 | 1019.2 |
| 20260902125300 | 67 | 162 | 1.0 | 4.0 | 0.00 | 0.02 | 0.01 | 97 | 1019.2 |
| 20260902124759 | 67 | 169 | 1.0 | 4.0 | 0.00 | 0.02 | 0.01 | 97 | 1019.0 |
| 20260902124258 | 67 | 162 | 1.0 | 4.0 | 0.00 | 0.02 | 0.01 | 97 | 1018.8 |
| 20260902124040 | 67 | 154 | 2.0 | 7.0 | 0.00 | 0.02 | 0.01 | 97 | 1018.8 |
| 20260902123536 | 67 | 142 | 4.0 | 7.0 | 0.00 | 0.02 | 0.01 | 97 | 1018.7 |
| 20260902122759 | 67 | 138 | 3.0 | 6.0 | 0.00 | 0.02 | 0.01 | 97 | 1018.2 |
| 20260902122258 | 67 | 135 | 3.0 | 4.0 | 0.00 | 0.02 | 0.01 | 97 | 1018.0 |
| 20260902121758 | 67 | 135 | 1.0 | 4.0 | 0.00 | 0.02 | 0.01 | 97 | 1018.0 |
| 20260902121258 | 67 | 127 | 0.0 | 3.0 | 0.00 | 0.02 | 0.01 | 97 | 1018.2 |
| 20260902120759 | 67 | 131 | 0.0 | 3.0 | 0.00 | 0.02 | 0.01 | 97 | 1017.9 |
| 20260902120540 | 67 | 133 | 1.0 | 3.0 | 0.00 | 0.02 | 0.01 | 97 | 1017.9 |
| 20260902115759 | 67 | 164 | 1.0 | 3.0 | 0.00 | 0.02 | 0.01 | 97 | 1018.2 |
| 20260902115259 | 67 | 141 | 2.0 | 4.0 | 0.00 | 0.02 | 0.01 | 97 | 1018.0 |
| 20260902114758 | 67 | 161 | 2.0 | 4.0 | 0.00 | 0.02 | 0.01 | 97 | 1018.2 |
| 20260902114259 | 67 | 135 | 2.0 | 5.0 | 0.00 | 0.02 | 0.01 | 98 | 1018.1 |
| 20260902113758 | 67 | 149 | 3.0 | 5.0 | 0.00 | 0.02 | 0.01 | 97 | 1018.0 |
| 20260902113258 | 66 | 154 | 4.0 | 5.0 | 0.00 | 0.02 | 0.01 | 97 | 1017.7 |
| 20260902112758 | 66 | 138 | 4.0 | 5.0 | 0.00 | 0.02 | 0.01 | 97 | 1017.6 |
| 20260902112258 | 66 | 140 | 4.0 | 5.0 | 0.00 | 0.02 | 0.01 | 97 | 1017.8 |
| 20260902111758 | 66 | 138 | 3.0 | 4.0 | 0.00 | 0.02 | 0.01 | 97 | 1017.7 |
| 20260902111538 | 66 | 130 | 2.0 | 4.0 | 0.00 | 0.02 | 0.01 | 97 | 1017.8 |
| 20260902110758 | 66 | 130 | 0.0 | 0.0 | 0.00 | 0.02 | 0.01 | 97 | 1017.7 |
| 20260902110259 | 66 | 130 | 0.0 | 0.0 | 0.00 | 0.02 | 0.01 | 97 | 1017.7 |
| 20260902105758 | 66 | 130 | 0.0 | 0.0 | 0.00 | 0.02 | 0.01 | 97 | 1017.7 |
| 20260902105259 | 66 | 130 | 0.0 | 0.0 | 0.00 | 0.02 | 0.01 | 97 | 1017.7 |
| 20260902104758 | 66 | 130 | 0.0 | 0.0 | 0.00 | 0.02 | 0.01 | 97 | 1017.8 |
| 20260902104258 | 66 | 130 | 0.0 | 3.0 | 0.00 | 0.02 | 0.01 | 97 | 1017.7 |
| 20260902103759 | 66 | 130 | 0.0 | 3.0 | 0.00 | 0.02 | 0.01 | 97 | 1017.7 |
| 20260902103258 | 66 | 130 | 1.0 | 3.0 | 0.00 | 0.02 | 0.01 | 97 | 1017.6 |
| 20260902102758 | 66 | 207 | 0.0 | 1.0 | 0.00 | 0.02 | 0.01 | 97 | 1017.5 |
| 20260902102258 | 66 | 206 | 0.0 | 0.0 | 0.00 | 0.02 | 0.01 | 97 | 1017.5 |
| 20260902101758 | 66 | 207 | 0.0 | 0.0 | 0.00 | 0.02 | 0.01 | 97 | 1017.8 |
| 20260902101259 | 67 | 206 | 0.0 | 1.0 | 0.00 | 0.02 | 0.01 | 97 | 1017.9 |
| 20260902100759 | 67 | 207 | 0.0 | 2.0 | 0.00 | 0.02 | 0.01 | 97 | 1017.9 |
| 20260902100258 | 67 | 207 | 1.0 | 3.0 | 0.00 | 0.02 | 0.01 | 97 | 1018.0 |
| 20260902095758 | 67 | 207 | 1.0 | 3.0 | 0.00 | 0.02 | 0.01 | 97 | 1018.0 |
| 20260902095258 | 67 | 207 | 0.0 | 1.0 | 0.00 | 0.03 | 0.01 | 97 | 1018.2 |
| 20260902094758 | 67 | 206 | 0.0 | 0.0 | 0.00 | 0.03 | 0.01 | 97 | 1018.1 |
| 20260902094259 | 67 | 207 | 0.0 | 0.0 | 0.00 | 0.03 | 0.01 | 97 | 1018.1 |
| 20260902093759 | 67 | 207 | 0.0 | 0.0 | 0.00 | 0.03 | 0.01 | 97 | 1018.0 |
| 20260902093258 | 67 | 207 | 0.0 | 0.0 | 0.00 | 0.03 | 0.01 | 97 | 1018.0 |
| 20260902092759 | 67 | 207 | 0.0 | 0.0 | 0.00 | 0.03 | 0.01 | 97 | 1018.0 |
| 20260902092257 | 67 | 206 | 0.0 | 0.0 | 0.00 | 0.03 | 0.01 | 97 | 1017.9 |
| 20260902091759 | 67 | 207 | 0.0 | 3.0 | 0.00 | 0.03 | 0.01 | 97 | 1018.0 |
| 20260902091258 | 67 | 204 | 0.0 | 5.0 | 0.00 | 0.03 | 0.01 | 97 | 1018.1 |
| 20260902090758 | 67 | 186 | 2.0 | 5.0 | 0.00 | 0.03 | 0.01 | 97 | 1018.0 |
| 20260902090259 | 67 | 240 | 1.0 | 5.0 | 0.00 | 0.03 | 0.01 | 97 | 1018.1 |
| 20260902085758 | 67 | 241 | 2.0 | 5.0 | 0.00 | 0.03 | 0.01 | 97 | 1018.1 |
| 20260902085259 | 67 | 235 | 2.0 | 4.0 | 0.00 | 0.03 | 0.01 | 97 | 1018.1 |
| 20260902084758 | 67 | 264 | 1.0 | 4.0 | 0.00 | 0.03 | 0.01 | 97 | 1018.1 |
| 20260902084258 | 67 | 254 | 1.0 | 4.0 | 0.00 | 0.03 | 0.01 | 97 | 1018.1 |
| 20260902084051 | 67 | 238 | 2.0 | 4.0 | 0.00 | 0.03 | 0.01 | 97 | 1018.1 |
| 20260902084046 | 67 | 233 | 1.0 | 4.0 | 0.00 | 0.03 | 0.01 | 97 | 1018.1 |
| 20260902082758 | 67 | 233 | 1.0 | 4.0 | 0.00 | 0.03 | 0.01 | 97 | 1018.0 |
| 20260902082259 | 67 | 220 | 2.0 | 4.0 | 0.00 | 0.03 | 0.01 | 97 | 1018.0 |
| 20260902082035 | 67 | 248 | 2.0 | 3.0 | 0.00 | 0.03 | 0.01 | 97 | 1018.0 |
| 20260902081258 | 67 | 214 | 1.0 | 4.0 | 0.00 | 0.03 | 0.01 | 97 | 1018.0 |
| 20260902080758 | 67 | 252 | 1.0 | 4.0 | 0.00 | 0.03 | 0.01 | 97 | 1018.0 |
| 20260902080258 | 67 | 240 | 2.0 | 3.0 | 0.00 | 0.03 | 0.01 | 97 | 1018.2 |
| 20260902080038 | 67 | 247 | 2.0 | 4.0 | 0.00 | 0.03 | 0.01 | 97 | 1018.1 |
| 20260902075537 | 67 | 247 | 1.0 | 4.0 | 0.00 | 0.03 | 0.01 | 97 | 1018.2 |
| 20260902074759 | 67 | 190 | 1.0 | 3.0 | 0.01 | 0.03 | 0.01 | 97 | 1018.4 |
| 20260902074258 | 67 | 190 | 1.0 | 3.0 | 0.01 | 0.03 | 0.01 | 97 | 1018.2 |
| 20260902073758 | 67 | 190 | 0.0 | 2.0 | 0.01 | 0.03 | 0.01 | 97 | 1018.2 |
| 20260902073259 | 67 | 190 | 0.0 | 2.0 | 0.01 | 0.03 | 0.01 | 97 | 1018.4 |
| 20260902072758 | 67 | 190 | 0.0 | 0.0 | 0.01 | 0.03 | 0.01 | 97 | 1018.2 |
| 20260902072258 | 67 | 190 | 0.0 | 0.0 | 0.01 | 0.03 | 0.01 | 97 | 1018.2 |
| 20260902071758 | 67 | 190 | 0.0 | 0.0 | 0.01 | 0.03 | 0.01 | 97 | 1018.4 |
| 20260902071259 | 67 | 190 | 0.0 | 0.0 | 0.01 | 0.03 | 0.01 | 97 | 1018.4 |
| 20260902071035 | 67 | 190 | 0.0 | 2.0 | 0.01 | 0.03 | 0.01 | 97 | 1018.4 |
| 20260902070536 | 67 | 190 | 0.0 | 3.0 | 0.01 | 0.03 | 0.01 | 97 | 1018.4 |
| 20260902065758 | 67 | 250 | 2.0 | 3.0 | 0.01 | 0.02 | 0.01 | 97 | 1018.4 |
| 20260902065258 | 67 | 206 | 1.0 | 3.0 | 0.01 | 0.02 | 0.01 | 97 | 1018.5 |
| 20260902064758 | 67 | 206 | 2.0 | 2.0 | 0.00 | 0.02 | 0.00 | 97 | 1018.5 |
| 20260902064258 | 67 | 206 | 1.0 | 2.0 | 0.00 | 0.02 | 0.00 | 97 | 1018.5 |
| 20260902063758 | 67 | 206 | 0.0 | 0.0 | 0.00 | 0.02 | 0.00 | 97 | 1018.5 |
| 20260902063258 | 67 | 206 | 0.0 | 0.0 | 0.00 | 0.02 | 0.00 | 97 | 1018.5 |
| 20260902062759 | 67 | 206 | 0.0 | 3.0 | 0.00 | 0.02 | 0.00 | 97 | 1018.5 |
| 20260902062258 | 67 | 206 | 1.0 | 3.0 | 0.00 | 0.02 | 0.00 | 97 | 1018.6 |
| 20260902062036 | 67 | 206 | 1.0 | 3.0 | 0.00 | 0.02 | 0.00 | 97 | 1018.6 |
| 20260902061315 | 67 | 206 | 1.0 | 3.0 | 0.00 | 0.02 | 0.00 | 97 | 1018.7 |
| 20260902061310 | 67 | 206 | 1.0 | 3.0 | 0.00 | 0.02 | 0.00 | 97 | 1018.7 |
| 20260902060259 | 67 | 243 | 1.0 | 3.0 | 0.00 | 0.02 | 0.00 | 97 | 1018.8 |
| 20260902055757 | 67 | 243 | 0.0 | 3.0 | 0.00 | 0.02 | 0.00 | 97 | 1018.9 |
| 20260902055258 | 67 | 243 | 2.0 | 4.0 | 0.00 | 0.02 | 0.00 | 97 | 1019.1 |
| 20260902054758 | 67 | 243 | 2.0 | 4.0 | 0.00 | 0.02 | 0.00 | 97 | 1018.9 |
| 20260902054258 | 67 | 248 | 3.0 | 4.0 | 0.00 | 0.02 | 0.00 | 97 | 1018.9 |
| 20260902053758 | 67 | 231 | 2.0 | 4.0 | 0.00 | 0.02 | 0.00 | 97 | 1018.8 |
| 20260902053257 | 67 | 226 | 2.0 | 3.0 | 0.00 | 0.02 | 0.00 | 97 | 1018.8 |
| 20260902052758 | 67 | 227 | 2.0 | 4.0 | 0.00 | 0.02 | 0.00 | 97 | 1018.6 |
| 20260902052258 | 67 | 207 | 3.0 | 4.0 | 0.00 | 0.02 | 0.00 | 96 | 1018.6 |
| 20260902051758 | 67 | 220 | 0.0 | 3.0 | 0.00 | 0.02 | 0.00 | 96 | 1018.6 |
| 20260902051258 | 67 | 220 | 1.0 | 3.0 | 0.00 | 0.02 | 0.00 | 97 | 1018.7 |
| 20260902050758 | 67 | 220 | 2.0 | 3.0 | 0.00 | 0.02 | 0.00 | 97 | 1018.5 |
| 20260902050258 | 67 | 109 | 2.0 | 3.0 | 0.00 | 0.02 | 0.00 | 97 | 1018.4 |
| 20260902045759 | 67 | 93 | 3.0 | 3.0 | 0.00 | 0.02 | 0.00 | 97 | 1018.2 |
| 20260902045258 | 67 | 131 | 2.0 | 3.0 | 0.00 | 0.02 | 0.00 | 97 | 1018.4 |
| 20260902044800 | 67 | 133 | 2.0 | 3.0 | 0.00 | 0.02 | 0.00 | 97 | 1018.4 |
| 20260902044258 | 67 | 175 | 1.0 | 3.0 | 0.00 | 0.02 | 0.00 | 97 | 1018.4 |
| 20260902044037 | 67 | 175 | 1.0 | 2.0 | 0.00 | 0.02 | 0.00 | 97 | 1018.4 |
| 20260902043257 | 67 | 155 | 1.0 | 3.0 | 0.00 | 0.02 | 0.00 | 97 | 1018.2 |
| 20260902042758 | 67 | 154 | 1.0 | 3.0 | 0.00 | 0.02 | 0.00 | 97 | 1018.2 |
| 20260902042258 | 67 | 154 | 0.0 | 2.0 | 0.00 | 0.02 | 0.00 | 97 | 1018.2 |
| 20260902041757 | 67 | 155 | 2.0 | 2.0 | 0.00 | 0.02 | 0.00 | 97 | 1018.2 |
| 20260902041258 | 67 | 154 | 1.0 | 2.0 | 0.00 | 0.02 | 0.00 | 97 | 1018.2 |
| 20260902040758 | 67 | 155 | 0.0 | 3.0 | 0.00 | 0.02 | 0.00 | 97 | 1018.2 |
| 20260902040258 | 67 | 155 | 2.0 | 3.0 | 0.00 | 0.02 | 0.00 | 97 | 1018.2 |
| 20260902035757 | 67 | 154 | 2.0 | 2.0 | 0.00 | 0.02 | 0.02 | 97 | 1018.1 |
| 20260902035258 | 67 | 155 | 2.0 | 2.0 | 0.00 | 0.02 | 0.02 | 96 | 1018.1 |
| 20260902034812 | 67 | 154 | 0.0 | 3.0 | 0.00 | 0.02 | 0.02 | 96 | 1018.1 |
| 20260902034806 | 67 | 154 | 0.0 | 2.0 | 0.00 | 0.02 | 0.02 | 96 | 1018.1 |
| 20260902033758 | 67 | 155 | 2.0 | 4.0 | 0.00 | 0.02 | 0.02 | 96 | 1018.1 |
| 20260902033257 | 67 | 155 | 3.0 | 4.0 | 0.00 | 0.02 | 0.02 | 96 | 1018.1 |
| 20260902032758 | 67 | 196 | 0.0 | 3.0 | 0.00 | 0.02 | 0.02 | 96 | 1018.1 |
| 20260902032258 | 68 | 196 | 1.0 | 4.0 | 0.00 | 0.02 | 0.02 | 96 | 1018.0 |
| 20260902031757 | 68 | 226 | 1.0 | 4.0 | 0.00 | 0.02 | 0.02 | 96 | 1018.0 |
| 20260902031257 | 68 | 234 | 1.0 | 5.0 | 0.00 | 0.02 | 0.02 | 96 | 1017.9 |
| 20260902030758 | 68 | 59 | 2.0 | 5.0 | 0.00 | 0.02 | 0.02 | 96 | 1017.8 |
| 20260902030259 | 68 | 83 | 3.0 | 4.0 | 0.00 | 0.02 | 0.02 | 96 | 1017.8 |
| 20260902030236 | 68 | 243 | 2.0 | 4.0 | 0.00 | 0.02 | 0.02 | 96 | 1017.8 |
| 20260902025256 | 68 | 243 | 0.0 | 1.0 | 0.00 | 0.02 | 0.02 | 96 | 1017.8 |
| 20260902024757 | 68 | 243 | 0.0 | 1.0 | 0.00 | 0.02 | 0.02 | 96 | 1017.8 |
| 20260902024257 | 68 | 243 | 0.0 | 2.0 | 0.00 | 0.02 | 0.02 | 96 | 1017.9 |
| 20260902023758 | 68 | 243 | 0.0 | 2.0 | 0.00 | 0.02 | 0.02 | 96 | 1018.1 |
| 20260902023258 | 68 | 243 | 0.0 | 2.0 | 0.00 | 0.02 | 0.02 | 96 | 1018.1 |
| 20260902023038 | 68 | 243 | 1.0 | 3.0 | 0.00 | 0.02 | 0.02 | 96 | 1018.1 |
| 20260902022258 | 68 | 243 | 2.0 | 3.0 | 0.00 | 0.02 | 0.02 | 96 | 1018.1 |
| 20260902021758 | 68 | 243 | 1.0 | 3.0 | 0.00 | 0.02 | 0.02 | 96 | 1018.1 |
| 20260902021258 | 68 | 243 | 2.0 | 3.0 | 0.00 | 0.02 | 0.02 | 96 | 1018.1 |
| 20260902020757 | 68 | 243 | 1.0 | 3.0 | 0.00 | 0.02 | 0.02 | 96 | 1018.1 |
| 20260902020257 | 68 | 243 | 1.0 | 3.0 | 0.00 | 0.02 | 0.02 | 96 | 1018.0 |
| 20260902015758 | 68 | 243 | 0.0 | 5.0 | 0.00 | 0.02 | 0.02 | 96 | 1017.9 |
| 20260902015259 | 68 | 243 | 2.0 | 5.0 | 0.00 | 0.02 | 0.02 | 96 | 1017.9 |
| 20260902014757 | 68 | 209 | 2.0 | 4.0 | 0.00 | 0.02 | 0.02 | 95 | 1017.9 |
| 20260902014257 | 68 | 266 | 1.0 | 2.0 | 0.00 | 0.02 | 0.02 | 95 | 1017.8 |
| 20260902013757 | 68 | 266 | 0.0 | 2.0 | 0.00 | 0.02 | 0.02 | 95 | 1017.6 |
| 20260902013536 | 68 | 266 | 0.0 | 2.0 | 0.00 | 0.02 | 0.02 | 95 | 1017.5 |
| 20260902012802 | 68 | 266 | 0.0 | 0.0 | 0.00 | 0.02 | 0.02 | 95 | 1017.5 |
| 20260902012543 | 68 | 266 | 0.0 | 2.0 | 0.00 | 0.02 | 0.02 | 95 | 1017.5 |
| 20260902011757 | 68 | 266 | 0.0 | 2.0 | 0.00 | 0.02 | 0.02 | 95 | 1017.5 |
| 20260902011258 | 68 | 266 | 1.0 | 3.0 | 0.00 | 0.02 | 0.02 | 95 | 1017.5 |
| 20260902010758 | 68 | 266 | 2.0 | 3.0 | 0.00 | 0.02 | 0.02 | 95 | 1017.6 |
| 20260902010536 | 68 | 266 | 0.0 | 4.0 | 0.00 | 0.02 | 0.02 | 95 | 1017.6 |
| 20260902005758 | 68 | 268 | 1.0 | 4.0 | 0.00 | 0.02 | 0.02 | 94 | 1017.7 |
| 20260902005258 | 68 | 268 | 2.0 | 3.0 | 0.00 | 0.02 | 0.02 | 94 | 1017.6 |
| 20260902004803 | 68 | 266 | 1.0 | 3.0 | 0.00 | 0.02 | 0.02 | 94 | 1017.6 |
| 20260902004257 | 68 | 266 | 2.0 | 5.0 | 0.00 | 0.02 | 0.02 | 94 | 1017.5 |
| 20260902003757 | 68 | 266 | 3.0 | 5.0 | 0.00 | 0.02 | 0.02 | 94 | 1017.4 |
| 20260902003257 | 68 | 266 | 2.0 | 4.0 | 0.01 | 0.02 | 0.02 | 94 | 1017.4 |
| 20260902002757 | 69 | 243 | 1.0 | 4.0 | 0.01 | 0.02 | 0.02 | 94 | 1017.4 |
| 20260902002257 | 69 | 219 | 2.0 | 4.0 | 0.01 | 0.02 | 0.02 | 94 | 1017.3 |
| 20260902001757 | 69 | 173 | 3.0 | 4.0 | 0.01 | 0.02 | 0.02 | 94 | 1017.1 |
| 20260902001257 | 69 | 154 | 3.0 | 4.0 | 0.01 | 0.02 | 0.02 | 94 | 1017.0 |
| 20260902001241 | 69 | 296 | 0.0 | 4.0 | 0.01 | 0.02 | 0.02 | 94 | 1016.7 |
| 20260902000258 | 69 | 296 | 3.0 | 4.0 | 0.01 | 0.02 | 0.02 | 94 | 1016.7 |
| 20260901235757 | 69 | 268 | 2.0 | 3.0 | 0.01 | 0.01 | 0.02 | 94 | 1016.6 |
| 20260901235257 | 69 | 268 | 2.0 | 3.0 | 0.01 | 0.01 | 0.02 | 94 | 1016.6 |
| 20260901234757 | 69 | 269 | 2.0 | 3.0 | 0.01 | 0.01 | 0.02 | 94 | 1016.7 |
| 20260901234526 | 69 | 269 | 2.0 | 3.0 | 0.01 | 0.01 | 0.02 | 94 | 1016.6 |
| 20260901233757 | 69 | 268 | 0.0 | 4.0 | 0.01 | 0.01 | 0.02 | 94 | 1016.5 |
| 20260901233741 | 69 | 309 | 1.0 | 4.0 | 0.00 | 0.01 | 0.01 | 94 | 1016.5 |
| 20260901232536 | 70 | 313 | 2.0 | 4.0 | 0.00 | 0.01 | 0.01 | 93 | 1016.5 |
| 20260901231757 | 70 | 313 | 2.0 | 3.0 | 0.00 | 0.01 | 0.01 | 93 | 1016.4 |
| 20260901231257 | 70 | 313 | 1.0 | 3.0 | 0.00 | 0.01 | 0.01 | 93 | 1016.4 |
| 20260901230757 | 70 | 313 | 2.0 | 6.0 | 0.00 | 0.01 | 0.01 | 93 | 1016.5 |
| 20260901230258 | 70 | 300 | 5.0 | 7.0 | 0.00 | 0.01 | 0.01 | 93 | 1016.5 |
| 20260901225824 | 70 | 271 | 4.0 | 7.0 | 0.00 | 0.01 | 0.01 | 92 | 1016.6 |
| 20260901225815 | 70 | 293 | 2.0 | 7.0 | 0.00 | 0.01 | 0.01 | 93 | 1016.5 |
| 20260901224802 | 70 | 309 | 4.0 | 9.0 | 0.00 | 0.01 | 0.01 | 92 | 1016.6 |
| 20260901224512 | 70 | 296 | 4.0 | 9.0 | 0.00 | 0.01 | 0.01 | 91 | 1016.5 |
| 20260901224019 | 70 | 303 | 2.0 | 13.0 | 0.00 | 0.01 | 0.01 | 90 | 1016.5 |
| 20260901223258 | 70 | 341 | 4.0 | 15.0 | 0.00 | 0.01 | 0.01 | 89 | 1016.8 |
| 20260901222758 | 71 | 326 | 7.0 | 15.0 | 0.00 | 0.01 | 0.01 | 87 | 1017.5 |
| 20260901222257 | 71 | 329 | 2.0 | 7.0 | 0.00 | 0.01 | 0.01 | 86 | 1016.7 |
| 20260901222036 | 72 | 262 | 2.0 | 12.0 | 0.00 | 0.01 | 0.01 | 84 | 1017.1 |
| 20260901221257 | 74 | 279 | 8.0 | 12.0 | 0.00 | 0.01 | 0.01 | 83 | 1017.4 |
| 20260901221036 | 75 | 281 | 6.0 | 10.0 | 0.00 | 0.01 | 0.01 | 82 | 1017.3 |
| 20260901220257 | 75 | 258 | 2.0 | 13.0 | 0.00 | 0.01 | 0.01 | 79 | 1017.1 |
| 20260901215757 | 76 | 252 | 4.0 | 13.0 | 0.00 | 0.01 | 0.01 | 77 | 1016.8 |
| 20260901215535 | 0 | 0.0 | 0.0 | 0.00 | 0.00 | 0.00 | 1016.8 | ||
| 20260901214755 | 80 | 265 | 12.0 | 22.0 | 0.00 | 0.01 | 0.01 | 81 | 1016.7 |
| 20260901214532 | 80 | 290 | 1.0 | 5.0 | 0.00 | 0.01 | 0.01 | 79 | 1016.4 |
| 20260901213754 | 81 | 47 | 1.0 | 5.0 | 0.00 | 0.01 | 0.01 | 78 | 1015.9 |
| 20260901213255 | 81 | 295 | 0.0 | 4.0 | 0.00 | 0.01 | 0.01 | 78 | 1016.5 |
| 20260901212754 | 81 | 296 | 0.0 | 4.0 | 0.00 | 0.01 | 0.01 | 77 | 1015.9 |
| 20260901212254 | 82 | 312 | 0.0 | 3.0 | 0.00 | 0.01 | 0.01 | 76 | 1016.0 |
| 20260901211755 | 82 | 275 | 0.0 | 2.0 | 0.00 | 0.01 | 0.01 | 76 | 1015.8 |
| 20260901211254 | 82 | 275 | 0.0 | 2.0 | 0.00 | 0.01 | 0.01 | 75 | 1016.0 |
| 20260901210754 | 83 | 275 | 0.0 | 1.0 | 0.00 | 0.01 | 0.01 | 75 | 1015.8 |
| 20260901210255 | 83 | 75 | 0.0 | 3.0 | 0.00 | 0.01 | 0.01 | 75 | 1015.6 |
| 20260901205754 | 83 | 300 | 1.0 | 3.0 | 0.00 | 0.01 | 0.01 | 73 | 1015.8 |
| 20260901205531 | 84 | 309 | 0.0 | 2.0 | 0.00 | 0.01 | 0.01 | 73 | 1015.7 |
| 20260901204754 | 84 | 28 | 0.0 | 3.0 | 0.00 | 0.01 | 0.01 | 72 | 1015.7 |
| 20260901204255 | 85 | 100 | 0.0 | 3.0 | 0.00 | 0.01 | 0.01 | 72 | 1015.8 |
| 20260901204030 | 85 | 288 | 0.0 | 6.0 | 0.00 | 0.01 | 0.01 | 71 | 1015.9 |